Location: Unspecified
(48.8656°N, 0.0000°E)
Time: 17:06:19
(UTC+00:00)

Transit 2A Rocket - Pass Details

Date: 18 June 2019
Orbit: 588 x 915 km, 66.7° (Epoch: 17 July)

Event Time Altitude Azimuth Distance (km) Brightness Sun altitude
Rises 20:16:54 0° 320° (NW) 3,327 10.8 -2.2°
Reaches altitude 10° 20:19:34 10° 313° (NW) 2,338 9.7 -2.5°
Maximum altitude 20:24:27 38° 246° (WSW) 1,101 6.1 -3.1°
Drops below altitude 10° 20:28:55 10° 179° (S) 2,122 6.9 -3.6°
Sets 20:31:14 0° 171° (S) 2,984 7.6 -3.9°
